Location: ČR
(50.0000°N, 15.0000°E)
Time: 15:37:22
(UTC+01:00)

Courier 1B - Pass Details

Date: 12 February 2026
Orbit: 962 x 1208 km, 28.3° (Epoch: 16 March)

Event Time Altitude Azimuth Distance (km) Brightness Sun altitude
Rises 00:18:34 0° 233° (SW) 4,104 - -53.8°
Reaches altitude 10° 00:23:14 10° 209° (SSW) 3,136 - -53.7°
Maximum altitude 00:26:41 14° 183° (S) 2,861 - -53.7°
Drops below altitude 10° 00:30:07 10° 156° (SSE) 3,103 - -53.6°
Sets 00:34:41 0° 132° (SE) 4,027 - -53.5°
